Location: Rumah Dana
(3.1167°N, 113.0167°E)
Time: 04:56:17
(UTC+00:00)

Cosmos 1763 Rocket - Pass Details

Date: 20 January 2026
Orbit: 729 x 773 km, 74.0° (Epoch: 10 February)

Event Time Altitude Azimuth Distance (km) Brightness Sun altitude
Rises 10:49:10 0° 181° (S) 3,214 7.0 -3.5°
Reaches altitude 10° 10:51:38 10° 174° (S) 2,280 6.2 -4.0°
Maximum altitude 10:56:34 45° 102° (ESE) 1,009 3.8 -5.2°
Drops below altitude 10° 11:01:24 10° 30° (NNE) 2,246 5.5 -6.3°
Sets 11:03:49 0° 24° (NNE) 3,160 6.3 -6.9°
